Location: Deurze
(52.9838°N, 6.6090°E)
Time: 18:40:31
(UTC+00:00)

USA 281 - Pass Details

Date: 11 March 2026
Orbit: 1079 x 1080 km, 106.0° (Epoch: 5 January)

Event Time Altitude Azimuth Distance (km) Brightness Sun altitude
Exits shadow 22:18:09 39° 22° (NNE) 1,571 4.2 -37.4°
Drops below altitude 10° 22:23:07 10° 339° (NNW) 2,933 6.2 -37.7°
Sets 22:25:46 0° 333° (NNW) 3,892 7.1 -37.9°
